CYEV

Inuvik (Mike Zubko) Airport

Airport
ICAO code
CYEV
Summary
ICAO Region
NAM
ICAO Territory
Location

Inuvik, Northwest Territories,

Coordinates
68° 18' 15" N , 133° 28' 58" W
KCC
Airport BS
Bird Strike
Non Avian Wildlife Hazards to Aircraft
Airport CFIT
Altimeter Temperature Error Correction
Airport GND
Aircraft Ground De/Anti Icing
Airport RE
Landing on Contaminated Runways
Metar
CYEV 161200Z 08006KT 15SM FEW250 M07/M13 A3017 RMK CI2 SLP226

Description

Inuvik Mike Zubko Airport is a regional airport serving Inuvik, Northwest Territories.

Climatology

Tundra climate (Köppen climate classification ET) - warmest month has an average temperature of 0 - 10 degrees C.

Runways

Designator Length Width Surface Rops
6/24 1829 46 ASP Yes/Yes

Airport map

Aerial View

SKYbrary Partners:

Safety knowledge contributed by: